Regional Weather Roundup
Issued by NWS

Home | Current Version | Previous Version | Graphics & Text | Print | Product List | Glossary On
Versions: 1 2 3 4 5 6 7 8 9 10 11 12 13 14 15 16 17 18 19 20 21 22 23 24 25 26 27 28 29 30 31 32 33 34 35 36 37 38 39 40 41 42 43 44 45 46 47 48 49 50
000
ASUS43 KLOT 202008
RWRIL

ILLINOIS REGIONAL WEATHER ROUNDUP
NATIONAL WEATHER SERVICE CHICAGO/ROMEOVILLE IL
200 PM CST FRI JAN 20 2017

NOTE: "FAIR" INDICATES FEW OR NO CLOUDS BELOW 12,000 FEET WITH NO
SIGNIFICANT WEATHER AND/OR OBSTRUCTIONS TO VISIBILITY.

* THESE STATIONS ARE NOT UNDER NWS QUALITY CONTROL. THEY ALSO MAY NOT
  REPORT WEATHER SUCH AS PRECIPITATION OR FOG.

ILZ001-002-007-009-015-016-024-202100-
NORTHWEST ILLINOIS

CITY           SKY/WX    TMP DP  RH WIND       PRES   REMARKS
MOLINE         CLOUDY    45  41  86 SE3       29.57S
STERLING*      CLOUDY    42  40  92 SE6       29.60S FOG
SAVANNA*       CLOUDY    41  40  95 CALM      29.58S FOG
$$

ILZ003-004-008-010-011-017-018-202100-
NORTH CENTRAL ILLINOIS

CITY           SKY/WX    TMP DP  RH WIND       PRES   REMARKS
ROCKFORD       CLOUDY    41  39  93 E7        29.60F FOG
FREEPORT*      FOG       39  39  99 E3        29.60F VSB 1
ROCHELLE*      CLOUDY    41  40  97 SE6       29.60S FOG
DE KALB*       CLOUDY    40  40  99 SE6       29.60F FOG
$$

ILZ005-006-012>014-019>023-202100-
NORTHEAST ILLINOIS

CITY           SKY/WX    TMP DP  RH WIND       PRES   REMARKS
CHICAGO-OHARE  CLOUDY    42  39  89 NE6       29.60F FOG
CHICAGO-MIDWAY CLOUDY    41  39  93 E5        29.61F FOG
AURORA         NOT AVBL
LANSING*       CLOUDY    43  43  99 CALM      29.62F
JOLIET*        CLOUDY    45  43  93 E5        29.61S FOG
WAUKEGAN       FOG       38  38 100 E5        29.62F VSB 1/8 WCI  34
DUPAGE AIRPORT CLOUDY    41  39  93 E3        29.59F FOG
KANKAKEE*      CLOUDY    46  45  98 CALM      29.62S
WHEELING       FOG       40  38  93 NE6       29.62F VSB 3/4
MORRIS*        CLOUDY    43  41  94 S6        29.60S
ROMEOVILLE*    CLOUDY    42  42 100 CALM      29.61S FOG
NORTHERLY ISL    N/A     36  35  96 E2          N/A
$$

LMZ740>746-202100-
SOUTHERN LAKE MICHIGAN

STATION/POSITION SKY/WX   TEMP    WIND        PRES    VSBY  WAVE
                          AIR SEA DIR/SP/G                  HT/PER
                          (F)     (DEG/KT/KT) (MB)    (MI)  (FT/S)
HARRISON CRIB              39     110/  5/  5   N/A
BURNHAM HARBOR             36      90/  4       N/A
CALUMET HARBOR             41     200/  3/  4 1003.0F
BURNS HARBOR               42     260/  2/  8 1004.4S
MICHIGAN CITY              38     320/  1/  2   N/A
$$

ILZ025>027-034>036-040-047-049-050-058-095>099-202100-
WEST-CENTRAL ILLINOIS

CITY           SKY/WX    TMP DP  RH WIND       PRES   REMARKS
QUINCY         CLOUDY    48  47  96 SE6       29.56S FOG
GALESBURG*     CLOUDY    45  44  98 S5        29.57F
MACOMB*        CLOUDY    46  46 100 S8        29.60S
JACKSONVILLE*  CLOUDY    49  48  99 CALM      29.57F FOG
PITTSFIELD*    CLOUDY    49  49  99 CALM      29.58S FOG
$$

ILZ028>032-037-038-041>044-048-051>054-059>061-202100-
CENTRAL ILLINOIS

CITY           SKY/WX    TMP DP  RH WIND       PRES   REMARKS
PONTIAC        CLOUDY    48  48 100 S8        29.61S
BLOOMINGTON    CLOUDY    47  46  97 S10       29.62R FOG
DECATUR        CLOUDY    52  50  93 S10       29.61R
PEORIA         CLOUDY    47  45  93 S8        29.59F
LACON*         CLOUDY    43  43  99 CALM      29.60R
LINCOLN*       CLOUDY    49  49 100 S8        29.60S FOG
SPRINGFIELD    CLOUDY    51  49  92 CALM      29.60F FOG
TAYLORVILLE    CLOUDY    52  49  90 S9        29.59F
$$

ILZ033-039-045-046-055>057-062-063-202100-
EAST-CENTRAL ILLINOIS

CITY           SKY/WX    TMP DP  RH WIND       PRES   REMARKS
CHAMPAIGN      CLOUDY    50  48  93 S9        29.62F
RANTOUL*       CLOUDY    50  49  97 S6        29.62S FOG
MATTOON        CLOUDY    51  48  89 S10       29.61F
PARIS*         CLOUDY    51  49  93 S14       29.64F
$$

ILZ079-100>102-202100-
SOUTHWEST ILLINOIS

CITY           SKY/WX    TMP DP  RH WIND       PRES   REMARKS
ALTON          CLOUDY    50  46  87 S12       29.59F
BELLEVILLE     CLOUDY    55  54  99 VRB5      29.58F
CAHOKIA*       CLOUDY    54  48  80 S8        29.58F
SPARTA*        CLOUDY    54  51  90 S7        29.61F
$$

ILZ064>066-069>071-074>076-080>082-084>086-088>090-092>094-202100-
SOUTH-CENTRAL ILLINOIS

CITY           SKY/WX    TMP DP  RH WIND       PRES   REMARKS
CARBONDALE     CLOUDY    57  54  89 S12       29.62F
CAIRO*         CLOUDY    59  55  88 S7        29.64F
EFFINGHAM*     CLOUDY    54  51  90 SE6       29.64S
MARION         CLOUDY    59  57  94 S12       29.64F
MT. VERNON     CLOUDY    56  52  86 S9        29.63S
CENTRALIA*     CLOUDY    57  53  86 S10       29.60F
SALEM*         CLOUDY    56  50  79 S10       29.61F
METROPOLIS*    CLOUDY    61  54  77 CALM      29.66S
$$

ILZ067-068-072-073-078-083-087-091-202100-
SOUTHEAST ILLINOIS

CITY           SKY/WX    TMP DP  RH WIND       PRES   REMARKS
LAWRENCEVILLE  CLOUDY    58  52  80 S13       29.65F
FLORA*         CLOUDY    58  52  82 S10       29.63S
FAIRFIELD*     CLOUDY    57  53  85 S9        29.63S
HARRISBURG*    CLOUDY    59  54  84 S8        29.64F
ROBINSON*      CLOUDY    54  49  83 S6        29.65F
CARMI*         CLOUDY    57  54  88 S13       29.65R
$$

ABBREVIATIONS USED IN REMARKS
   TC - TEMPERATURE IN CELSIUS
  WCI - WIND CHILL INDEX
   HX - HEAT INDEX
  VSB - VISIBILITY
$$




USA.gov is the U.S. government's official web portal to all federal, state and local government web resources and services.